| time (UTC) | temp F | wind direction | speed MPH | gust MPH | rain 1hr in | rain 24hr in | rain mn in | humidity % | barometer mb |
| 20260903113036 | 79 | 232 | 4.0 | 13.0 | 0.00 | 0.00 | 0.00 | 59 | 1021.4 |
| 20260903112529 | 79 | 275 | 4.0 | 12.0 | 0.00 | 0.00 | 0.00 | 60 | 1021.5 |
| 20260903112046 | 80 | 303 | 5.0 | 12.0 | 0.00 | 0.00 | 0.00 | 59 | 1021.4 |
| 20260903111539 | 80 | 257 | 2.0 | 10.0 | 0.00 | 0.00 | 0.00 | 61 | 1021.5 |
| 20260903111102 | 79 | 238 | 2.0 | 9.0 | 0.00 | 0.00 | 0.00 | 61 | 1021.5 |
| 20260903110557 | 79 | 238 | 2.0 | 8.0 | 0.00 | 0.00 | 0.00 | 62 | 1021.4 |
| 20260903110043 | 78 | 207 | 3.0 | 11.0 | 0.00 | 0.00 | 0.00 | 64 | 1021.5 |
| 20260903105603 | 78 | 216 | 3.0 | 11.0 | 0.00 | 0.00 | 0.00 | 63 | 1021.6 |
| 20260903105045 | 78 | 196 | 5.0 | 11.0 | 0.00 | 0.00 | 0.00 | 64 | 1021.6 |
| 20260903104540 | 78 | 279 | 1.0 | 11.0 | 0.00 | 0.00 | 0.00 | 63 | 1021.6 |
| 20260903104029 | 78 | 210 | 3.0 | 11.0 | 0.00 | 0.00 | 0.00 | 64 | 1021.7 |
| 20260903103535 | 77 | 232 | 2.0 | 11.0 | 0.00 | 0.00 | 0.00 | 64 | 1021.7 |
| 20260903103027 | 77 | 216 | 5.0 | 13.0 | 0.00 | 0.00 | 0.00 | 65 | 1021.8 |
| 20260903102540 | 77 | 331 | 7.0 | 13.0 | 0.00 | 0.00 | 0.00 | 66 | 1021.8 |
| 20260903102036 | 76 | 254 | 4.0 | 13.0 | 0.00 | 0.00 | 0.00 | 66 | 1021.9 |
| 20260903101526 | 76 | 298 | 6.0 | 13.0 | 0.00 | 0.00 | 0.00 | 66 | 1021.8 |
| 20260903101105 | 76 | 306 | 3.0 | 13.0 | 0.00 | 0.00 | 0.00 | 65 | 1021.8 |
| 20260903100615 | 76 | 251 | 4.0 | 13.0 | 0.00 | 0.00 | 0.00 | 67 | 1021.9 |
| 20260903100029 | 75 | 230 | 4.0 | 13.0 | 0.00 | 0.00 | 0.00 | 66 | 1022.0 |
| 20260903095542 | 75 | 281 | 3.0 | 14.0 | 0.00 | 0.00 | 0.00 | 67 | 1021.9 |
| 20260903095038 | 75 | 319 | 3.0 | 12.0 | 0.00 | 0.00 | 0.00 | 67 | 1022.1 |
| 20260903094529 | 75 | 273 | 6.0 | 12.0 | 0.00 | 0.00 | 0.00 | 67 | 1022.0 |
| 20260903094029 | 74 | 278 | 4.0 | 11.0 | 0.00 | 0.00 | 0.00 | 68 | 1022.1 |
| 20260903093542 | 74 | 213 | 4.0 | 11.0 | 0.00 | 0.00 | 0.00 | 68 | 1022.2 |
| 20260903093029 | 74 | 255 | 4.0 | 12.0 | 0.00 | 0.00 | 0.00 | 68 | 1022.2 |
| 20260903092541 | 74 | 234 | 4.0 | 12.0 | 0.00 | 0.00 | 0.00 | 67 | 1022.2 |
| 20260903092032 | 74 | 273 | 3.0 | 9.0 | 0.00 | 0.00 | 0.00 | 68 | 1022.2 |
| 20260903091552 | 74 | 234 | 3.0 | 10.0 | 0.00 | 0.00 | 0.00 | 67 | 1022.4 |
| 20260903091046 | 74 | 194 | 3.0 | 10.0 | 0.00 | 0.00 | 0.00 | 68 | 1022.5 |
| 20260903090536 | 74 | 235 | 1.0 | 9.0 | 0.00 | 0.00 | 0.00 | 69 | 1022.4 |
| 20260903090059 | 74 | 236 | 3.0 | 9.0 | 0.00 | 0.00 | 0.00 | 68 | 1022.3 |
| 20260903085559 | 74 | 268 | 3.0 | 8.0 | 0.00 | 0.00 | 0.00 | 69 | 1022.4 |
| 20260903085107 | 73 | 288 | 1.0 | 8.0 | 0.00 | 0.00 | 0.00 | 70 | 1022.5 |
| 20260903084539 | 73 | 291 | 1.0 | 8.0 | 0.00 | 0.00 | 0.00 | 72 | 1022.5 |
| 20260903084034 | 72 | 245 | 1.0 | 6.0 | 0.00 | 0.00 | 0.00 | 72 | 1022.4 |
| 20260903083529 | 72 | 240 | 1.0 | 5.0 | 0.00 | 0.00 | 0.00 | 71 | 1022.4 |
| 20260903083037 | 71 | 271 | 1.0 | 4.0 | 0.00 | 0.00 | 0.00 | 73 | 1022.3 |
| 20260903082532 | 71 | 288 | 1.0 | 4.0 | 0.00 | 0.00 | 0.00 | 73 | 1022.4 |
| 20260903082044 | 70 | 232 | 1.0 | 6.0 | 0.00 | 0.00 | 0.00 | 73 | 1022.4 |
| 20260903081537 | 70 | 275 | 1.0 | 7.0 | 0.00 | 0.00 | 0.00 | 75 | 1022.2 |
| 20260903081035 | 69 | 242 | 2.0 | 8.0 | 0.00 | 0.00 | 0.00 | 74 | 1022.4 |
| 20260903080536 | 69 | 277 | 2.0 | 9.0 | 0.00 | 0.00 | 0.00 | 74 | 1022.3 |
| 20260903080027 | 69 | 278 | 2.0 | 9.0 | 0.00 | 0.00 | 0.00 | 74 | 1022.3 |
| 20260903075540 | 69 | 238 | 1.0 | 8.0 | 0.00 | 0.00 | 0.00 | 76 | 1022.3 |
| 20260903075030 | 68 | 288 | 1.0 | 8.0 | 0.00 | 0.00 | 0.00 | 75 | 1022.2 |
| 20260903074544 | 68 | 265 | 1.0 | 7.0 | 0.00 | 0.00 | 0.00 | 76 | 1022.1 |
| 20260903074038 | 67 | 279 | 1.0 | 7.0 | 0.00 | 0.00 | 0.00 | 76 | 1022.2 |
| 20260903073537 | 66 | 269 | 1.0 | 10.0 | 0.00 | 0.00 | 0.00 | 77 | 1022.3 |
| 20260903073029 | 66 | 222 | 1.0 | 10.0 | 0.00 | 0.00 | 0.00 | 76 | 1022.3 |
| 20260903072540 | 66 | 296 | 1.0 | 6.0 | 0.00 | 0.00 | 0.00 | 76 | 1022.3 |
| 20260903072029 | 65 | 281 | 1.0 | 4.0 | 0.00 | 0.00 | 0.00 | 77 | 1022.3 |
| 20260903071544 | 65 | 282 | 1.0 | 7.0 | 0.00 | 0.00 | 0.00 | 77 | 1022.4 |
| 20260903071041 | 64 | 273 | 2.0 | 7.0 | 0.00 | 0.00 | 0.00 | 77 | 1022.4 |
| 20260903070532 | 64 | 261 | 2.0 | 5.0 | 0.00 | 0.00 | 0.00 | 77 | 1022.3 |
| 20260903070028 | 64 | 275 | 1.0 | 6.0 | 0.00 | 0.00 | 0.00 | 78 | 1022.2 |
| 20260903065545 | 63 | 258 | 1.0 | 8.0 | 0.00 | 0.00 | 0.00 | 78 | 1022.2 |
| 20260903065033 | 63 | 281 | 2.0 | 8.0 | 0.00 | 0.00 | 0.00 | 79 | 1022.2 |
| 20260903064531 | 62 | 221 | 3.0 | 7.0 | 0.00 | 0.00 | 0.00 | 80 | 1022.3 |
| 20260903064041 | 62 | 225 | 2.0 | 5.0 | 0.00 | 0.00 | 0.00 | 80 | 1022.2 |
| 20260903063536 | 61 | 242 | 1.0 | 8.0 | 0.00 | 0.00 | 0.00 | 81 | 1022.2 |
| 20260903063031 | 61 | 216 | 2.0 | 8.0 | 0.00 | 0.00 | 0.00 | 81 | 1022.1 |
| 20260903062543 | 61 | 281 | 2.0 | 5.0 | 0.00 | 0.00 | 0.00 | 81 | 1022.0 |
| 20260903062037 | 60 | 280 | 2.0 | 7.0 | 0.00 | 0.00 | 0.00 | 82 | 1021.9 |
| 20260903061529 | 60 | 263 | 2.0 | 8.0 | 0.00 | 0.00 | 0.00 | 82 | 1021.9 |
| 20260903061039 | 60 | 253 | 2.0 | 8.0 | 0.00 | 0.00 | 0.00 | 83 | 1021.8 |
| 20260903060535 | 59 | 279 | 1.0 | 5.0 | 0.00 | 0.00 | 0.00 | 83 | 1021.7 |
| 20260903060104 | 59 | 231 | 2.0 | 6.0 | 0.00 | 0.00 | 0.00 | 83 | 1021.5 |
| 20260903055535 | 59 | 220 | 2.0 | 6.0 | 0.00 | 0.00 | 0.00 | 84 | 1021.4 |
| 20260903055023 | 58 | 224 | 2.0 | 6.0 | 0.00 | 0.00 | 0.00 | 84 | 1021.3 |
| 20260903054543 | 58 | 229 | 2.0 | 5.0 | 0.00 | 0.00 | 0.00 | 84 | 1021.2 |
| 20260903054028 | 58 | 232 | 1.0 | 5.0 | 0.00 | 0.00 | 0.00 | 84 | 1021.3 |
| 20260903053607 | 58 | 229 | 1.0 | 4.0 | 0.00 | 0.00 | 0.00 | 84 | 1021.3 |
| 20260903053038 | 58 | 259 | 1.0 | 6.0 | 0.00 | 0.00 | 0.00 | 84 | 1021.4 |
| 20260903052530 | 58 | 245 | 1.0 | 6.0 | 0.00 | 0.00 | 0.00 | 84 | 1021.4 |
| 20260903052042 | 58 | 263 | 1.0 | 4.0 | 0.00 | 0.00 | 0.00 | 84 | 1021.2 |
| 20260903051600 | 58 | 247 | 1.0 | 5.0 | 0.00 | 0.00 | 0.00 | 84 | 1021.2 |
| 20260903051031 | 58 | 249 | 1.0 | 5.0 | 0.00 | 0.00 | 0.00 | 84 | 1021.2 |
| 20260903050551 | 58 | 245 | 1.0 | 5.0 | 0.00 | 0.00 | 0.00 | 84 | 1021.2 |
| 20260903050039 | 58 | 251 | 1.0 | 5.0 | 0.00 | 0.00 | 0.00 | 84 | 1021.1 |
| 20260903045535 | 58 | 221 | 1.0 | 5.0 | 0.00 | 0.00 | 0.00 | 83 | 1020.9 |
| 20260903045029 | 58 | 209 | 2.0 | 5.0 | 0.00 | 0.00 | 0.00 | 83 | 1020.9 |
| 20260903044540 | 58 | 234 | 1.0 | 4.0 | 0.00 | 0.00 | 0.00 | 83 | 1021.0 |
| 20260903044035 | 58 | 252 | 1.0 | 4.0 | 0.00 | 0.00 | 0.00 | 83 | 1020.9 |
| 20260903043531 | 58 | 233 | 2.0 | 5.0 | 0.00 | 0.00 | 0.00 | 83 | 1020.9 |
| 20260903043031 | 59 | 241 | 1.0 | 5.0 | 0.00 | 0.00 | 0.00 | 83 | 1020.9 |
| 20260903042547 | 58 | 230 | 2.0 | 5.0 | 0.00 | 0.00 | 0.00 | 83 | 1020.9 |
| 20260903042040 | 58 | 227 | 2.0 | 5.0 | 0.00 | 0.00 | 0.00 | 83 | 1021.0 |
| 20260903041602 | 58 | 286 | 1.0 | 5.0 | 0.00 | 0.00 | 0.00 | 83 | 1021.1 |
| 20260903041033 | 58 | 253 | 1.0 | 5.0 | 0.00 | 0.00 | 0.00 | 83 | 1021.2 |
| 20260903040553 | 58 | 227 | 1.0 | 5.0 | 0.00 | 0.00 | 0.00 | 82 | 1021.2 |
| 20260903040049 | 58 | 250 | 2.0 | 7.0 | 0.00 | 0.00 | 0.00 | 82 | 1021.2 |
| 20260903035537 | 59 | 224 | 2.0 | 5.0 | 0.00 | 0.00 | 0.00 | 81 | 1021.2 |
| 20260903035034 | 59 | 242 | 1.0 | 6.0 | 0.00 | 0.00 | 0.00 | 81 | 1021.1 |
| 20260903034547 | 59 | 238 | 1.0 | 7.0 | 0.00 | 0.00 | 0.00 | 81 | 1021.0 |
| 20260903034030 | 59 | 247 | 2.0 | 7.0 | 0.00 | 0.00 | 0.00 | 80 | 1021.1 |
| 20260903033603 | 59 | 231 | 2.0 | 6.0 | 0.00 | 0.00 | 0.00 | 80 | 1021.3 |
| 20260903033038 | 59 | 263 | 2.0 | 6.0 | 0.00 | 0.00 | 0.00 | 80 | 1021.2 |
| 20260903032530 | 59 | 238 | 2.0 | 4.0 | 0.00 | 0.00 | 0.00 | 80 | 1021.1 |
| 20260903032038 | 59 | 279 | 1.0 | 4.0 | 0.00 | 0.00 | 0.00 | 79 | 1021.0 |
| 20260903031554 | 60 | 273 | 1.0 | 5.0 | 0.00 | 0.00 | 0.00 | 79 | 1021.0 |
| 20260903031035 | 60 | 242 | 1.0 | 5.0 | 0.00 | 0.00 | 0.00 | 79 | 1020.9 |
| 20260903030549 | 60 | 234 | 1.0 | 4.0 | 0.00 | 0.00 | 0.00 | 79 | 1020.8 |
| 20260903030041 | 60 | 257 | 1.0 | 5.0 | 0.00 | 0.00 | 0.00 | 79 | 1020.9 |
| 20260903025536 | 60 | 271 | 1.0 | 5.0 | 0.00 | 0.00 | 0.00 | 78 | 1020.9 |
| 20260903025030 | 60 | 231 | 1.0 | 4.0 | 0.00 | 0.00 | 0.00 | 78 | 1020.8 |
| 20260903024544 | 60 | 249 | 1.0 | 4.0 | 0.00 | 0.00 | 0.00 | 78 | 1020.8 |
| 20260903024043 | 60 | 271 | 1.0 | 4.0 | 0.00 | 0.00 | 0.00 | 78 | 1020.8 |
| 20260903023601 | 60 | 231 | 2.0 | 4.0 | 0.00 | 0.00 | 0.00 | 77 | 1020.8 |
| 20260903023103 | 60 | 268 | 1.0 | 4.0 | 0.00 | 0.00 | 0.00 | 77 | 1020.7 |
| 20260903022535 | 60 | 253 | 1.0 | 4.0 | 0.00 | 0.00 | 0.00 | 76 | 1020.7 |
| 20260903022030 | 61 | 255 | 1.0 | 4.0 | 0.00 | 0.00 | 0.00 | 76 | 1020.7 |
| 20260903021531 | 61 | 276 | 1.0 | 5.0 | 0.00 | 0.00 | 0.00 | 76 | 1020.8 |
| 20260903021045 | 61 | 247 | 1.0 | 5.0 | 0.00 | 0.00 | 0.00 | 76 | 1020.8 |
| 20260903020539 | 61 | 269 | 1.0 | 4.0 | 0.00 | 0.00 | 0.00 | 75 | 1020.7 |
| 20260903020031 | 61 | 275 | 2.0 | 5.0 | 0.00 | 0.00 | 0.00 | 75 | 1020.8 |
| 20260903015540 | 61 | 263 | 1.0 | 5.0 | 0.00 | 0.00 | 0.00 | 75 | 1020.9 |
| 20260903015034 | 61 | 255 | 1.0 | 6.0 | 0.00 | 0.00 | 0.00 | 75 | 1020.8 |
| 20260903014533 | 62 | 276 | 1.0 | 4.0 | 0.00 | 0.00 | 0.00 | 74 | 1020.8 |
| 20260903014025 | 62 | 238 | 1.0 | 4.0 | 0.00 | 0.00 | 0.00 | 74 | 1020.7 |
| 20260903013543 | 62 | 233 | 1.0 | 3.0 | 0.00 | 0.00 | 0.00 | 74 | 1020.7 |
| 20260903013041 | 61 | 259 | 1.0 | 5.0 | 0.00 | 0.00 | 0.00 | 74 | 1020.8 |
| 20260903012539 | 61 | 236 | 1.0 | 6.0 | 0.00 | 0.00 | 0.00 | 74 | 1020.7 |
| 20260903012027 | 61 | 273 | 1.0 | 4.0 | 0.00 | 0.00 | 0.00 | 74 | 1020.8 |
| 20260903011545 | 61 | 255 | 1.0 | 5.0 | 0.00 | 0.00 | 0.00 | 74 | 1020.9 |
| 20260903011044 | 61 | 247 | 1.0 | 5.0 | 0.00 | 0.00 | 0.00 | 74 | 1020.8 |
| 20260903010619 | 61 | 284 | 2.0 | 5.0 | 0.00 | 0.00 | 0.00 | 74 | 1020.8 |
| 20260903010049 | 61 | 258 | 1.0 | 3.0 | 0.00 | 0.00 | 0.00 | 74 | 1020.8 |
| 20260903005540 | 61 | 269 | 0.0 | 3.0 | 0.00 | 0.00 | 0.00 | 74 | 1020.7 |
| 20260903005027 | 61 | 222 | 1.0 | 3.0 | 0.00 | 0.00 | 0.00 | 74 | 1020.7 |
| 20260903004541 | 61 | 249 | 1.0 | 3.0 | 0.00 | 0.00 | 0.00 | 74 | 1020.6 |
| 20260903004035 | 61 | 241 | 0.0 | 1.0 | 0.00 | 0.00 | 0.00 | 73 | 1020.7 |
| 20260903003549 | 62 | 238 | 0.0 | 1.0 | 0.00 | 0.00 | 0.00 | 73 | 1020.7 |
| 20260903003043 | 62 | 227 | 0.0 | 1.0 | 0.00 | 0.00 | 0.00 | 73 | 1020.7 |
| 20260903002535 | 62 | 246 | 1.0 | 3.0 | 0.00 | 0.00 | 0.00 | 73 | 1020.6 |
| 20260903002029 | 61 | 238 | 0.0 | 3.0 | 0.00 | 0.00 | 0.00 | 73 | 1020.7 |
| 20260903001538 | 62 | 237 | 0.0 | 2.0 | 0.00 | 0.00 | 0.00 | 73 | 1020.8 |
| 20260903001105 | 61 | 240 | 0.0 | 2.0 | 0.00 | 0.00 | 0.00 | 74 | 1020.9 |
| 20260903000535 | 61 | 240 | 0.0 | 1.0 | 0.00 | 0.00 | 0.00 | 74 | 1020.8 |
| 20260902235541 | 61 | 240 | 0.0 | 1.0 | 0.00 | 0.00 | 0.00 | 74 | 1020.8 |
| 20260902235039 | 61 | 239 | 0.0 | 1.0 | 0.00 | 0.00 | 0.00 | 74 | 1020.8 |
| 20260902234532 | 61 | 236 | 0.0 | 1.0 | 0.00 | 0.00 | 0.00 | 75 | 1020.9 |
| 20260902234041 | 61 | 267 | 0.0 | 1.0 | 0.00 | 0.00 | 0.00 | 75 | 1021.0 |
| 20260902233539 | 61 | 292 | 0.0 | 1.0 | 0.00 | 0.00 | 0.00 | 76 | 1021.0 |
| 20260902233032 | 61 | 297 | 0.0 | 0.0 | 0.00 | 0.00 | 0.00 | 76 | 1020.9 |
| 20260902232545 | 61 | 297 | 0.0 | 0.0 | 0.00 | 0.00 | 0.00 | 76 | 1020.9 |
| 20260902232039 | 61 | 297 | 0.0 | 0.0 | 0.00 | 0.00 | 0.00 | 76 | 1020.8 |
| 20260902231536 | 62 | 297 | 0.0 | 0.0 | 0.00 | 0.00 | 0.00 | 76 | 1020.8 |
| 20260902231051 | 62 | 297 | 0.0 | 0.0 | 0.00 | 0.00 | 0.00 | 76 | 1020.9 |
| 20260902230543 | 62 | 297 | 0.0 | 0.0 | 0.00 | 0.00 | 0.00 | 77 | 1020.8 |
| 20260902230034 | 62 | 297 | 0.0 | 0.0 | 0.00 | 0.00 | 0.00 | 77 | 1020.9 |
| 20260902225549 | 62 | 297 | 0.0 | 0.0 | 0.00 | 0.00 | 0.00 | 76 | 1020.9 |
| 20260902225059 | 62 | 297 | 0.0 | 0.0 | 0.00 | 0.00 | 0.00 | 76 | 1020.9 |
| 20260902224533 | 62 | 297 | 0.0 | 0.0 | 0.00 | 0.00 | 0.00 | 76 | 1020.9 |
| 20260902224034 | 62 | 297 | 0.0 | 0.0 | 0.00 | 0.00 | 0.00 | 76 | 1020.9 |
| 20260902223542 | 62 | 297 | 0.0 | 0.0 | 0.00 | 0.00 | 0.00 | 76 | 1020.9 |
| 20260902223040 | 62 | 297 | 0.0 | 0.0 | 0.00 | 0.00 | 0.00 | 76 | 1020.9 |
| 20260902222533 | 62 | 297 | 0.0 | 0.0 | 0.00 | 0.00 | 0.00 | 75 | 1020.9 |
| 20260902222056 | 62 | 297 | 0.0 | 0.0 | 0.00 | 0.00 | 0.00 | 75 | 1020.9 |
| 20260902221551 | 63 | 297 | 0.0 | 0.0 | 0.00 | 0.00 | 0.00 | 74 | 1020.8 |
| 20260902221032 | 63 | 297 | 0.0 | 0.0 | 0.00 | 0.00 | 0.00 | 74 | 1020.8 |
| 20260902220538 | 63 | 297 | 0.0 | 0.0 | 0.00 | 0.00 | 0.00 | 74 | 1020.8 |
| 20260902220031 | 63 | 297 | 0.0 | 0.0 | 0.00 | 0.00 | 0.00 | 73 | 1020.8 |
| 20260902215542 | 63 | 297 | 0.0 | 0.0 | 0.00 | 0.00 | 0.00 | 73 | 1020.7 |
| 20260902215038 | 64 | 297 | 0.0 | 0.0 | 0.00 | 0.00 | 0.00 | 72 | 1020.7 |
| 20260902214530 | 64 | 297 | 0.0 | 0.0 | 0.00 | 0.00 | 0.00 | 72 | 1020.8 |
| 20260902214047 | 64 | 297 | 0.0 | 0.0 | 0.00 | 0.00 | 0.00 | 71 | 1020.7 |
| 20260902213542 | 64 | 297 | 0.0 | 0.0 | 0.00 | 0.00 | 0.00 | 70 | 1020.7 |
| 20260902213028 | 64 | 297 | 0.0 | 0.0 | 0.00 | 0.00 | 0.00 | 69 | 1020.6 |
| 20260902212546 | 65 | 297 | 0.0 | 0.0 | 0.00 | 0.00 | 0.00 | 68 | 1020.6 |
| 20260902212044 | 65 | 297 | 0.0 | 0.0 | 0.00 | 0.00 | 0.00 | 68 | 1020.5 |
| 20260902211602 | 65 | 297 | 0.0 | 0.0 | 0.00 | 0.00 | 0.00 | 67 | 1020.4 |
| 20260902211035 | 65 | 297 | 0.0 | 0.0 | 0.00 | 0.00 | 0.00 | 66 | 1020.4 |
| 20260902210531 | 65 | 297 | 0.0 | 0.0 | 0.00 | 0.00 | 0.00 | 66 | 1020.4 |
| 20260902210100 | 66 | 297 | 0.0 | 0.0 | 0.00 | 0.00 | 0.00 | 66 | 1020.4 |
| 20260902205555 | 66 | 297 | 0.0 | 0.0 | 0.00 | 0.00 | 0.00 | 65 | 1020.4 |
| 20260902205104 | 66 | 297 | 0.0 | 0.0 | 0.00 | 0.00 | 0.00 | 65 | 1020.5 |
| 20260902204538 | 66 | 297 | 0.0 | 1.0 | 0.00 | 0.00 | 0.00 | 65 | 1020.5 |
| 20260902204029 | 66 | 297 | 0.0 | 1.0 | 0.00 | 0.00 | 0.00 | 64 | 1020.4 |
| 20260902203542 | 67 | 297 | 0.0 | 1.0 | 0.00 | 0.00 | 0.00 | 64 | 1020.4 |
| 20260902203040 | 67 | 293 | 0.0 | 1.0 | 0.00 | 0.00 | 0.00 | 64 | 1020.5 |
| 20260902202532 | 67 | 288 | 0.0 | 0.0 | 0.00 | 0.00 | 0.00 | 63 | 1020.4 |
| 20260902202045 | 67 | 288 | 0.0 | 0.0 | 0.00 | 0.00 | 0.00 | 62 | 1020.4 |
| 20260902201539 | 68 | 288 | 0.0 | 0.0 | 0.00 | 0.00 | 0.00 | 61 | 1020.4 |
| 20260902201036 | 68 | 288 | 0.0 | 0.0 | 0.00 | 0.00 | 0.00 | 61 | 1020.4 |
| 20260902200553 | 68 | 288 | 0.0 | 0.0 | 0.00 | 0.00 | 0.00 | 61 | 1020.4 |
| 20260902200104 | 68 | 288 | 0.0 | 1.0 | 0.00 | 0.00 | 0.00 | 60 | 1020.4 |
| 20260902195540 | 68 | 288 | 0.0 | 1.0 | 0.00 | 0.00 | 0.00 | 60 | 1020.4 |
| 20260902195030 | 69 | 288 | 0.0 | 1.0 | 0.00 | 0.00 | 0.00 | 59 | 1020.4 |
| 20260902194544 | 69 | 289 | 0.0 | 1.0 | 0.00 | 0.00 | 0.00 | 58 | 1020.3 |
| 20260902194036 | 69 | 287 | 0.0 | 1.0 | 0.00 | 0.00 | 0.00 | 58 | 1020.3 |
| 20260902193531 | 69 | 293 | 0.0 | 1.0 | 0.00 | 0.00 | 0.00 | 57 | 1020.2 |
| 20260902193046 | 70 | 296 | 0.0 | 1.0 | 0.00 | 0.00 | 0.00 | 56 | 1020.2 |
| 20260902192542 | 70 | 296 | 0.0 | 1.0 | 0.00 | 0.00 | 0.00 | 56 | 1020.2 |
| 20260902192039 | 70 | 304 | 0.0 | 1.0 | 0.00 | 0.00 | 0.00 | 55 | 1020.2 |
| 20260902191553 | 71 | 304 | 0.0 | 1.0 | 0.00 | 0.00 | 0.00 | 55 | 1020.1 |
| 20260902191105 | 71 | 304 | 0.0 | 1.0 | 0.00 | 0.00 | 0.00 | 54 | 1020.0 |
| 20260902190539 | 72 | 288 | 0.0 | 1.0 | 0.00 | 0.00 | 0.00 | 53 | 1020.0 |
| 20260902190028 | 72 | 290 | 0.0 | 1.0 | 0.00 | 0.00 | 0.00 | 52 | 1019.9 |
| 20260902185610 | 73 | 290 | 0.0 | 1.0 | 0.00 | 0.00 | 0.00 | 52 | 1019.8 |
| 20260902185043 | 73 | 290 | 0.0 | 1.0 | 0.00 | 0.00 | 0.00 | 51 | 1019.8 |
| 20260902184555 | 74 | 290 | 0.0 | 1.0 | 0.00 | 0.00 | 0.00 | 50 | 1019.8 |
| 20260902184028 | 74 | 289 | 0.0 | 1.0 | 0.00 | 0.00 | 0.00 | 50 | 1019.7 |
| 20260902183545 | 74 | 290 | 0.0 | 1.0 | 0.00 | 0.00 | 0.00 | 49 | 1019.7 |
| 20260902183037 | 75 | 293 | 0.0 | 1.0 | 0.00 | 0.00 | 0.00 | 48 | 1019.7 |
| 20260902182531 | 75 | 290 | 0.0 | 1.0 | 0.00 | 0.00 | 0.00 | 48 | 1019.6 |
| 20260902182034 | 75 | 287 | 0.0 | 1.0 | 0.00 | 0.00 | 0.00 | 46 | 1019.6 |
| 20260902181541 | 76 | 284 | 1.0 | 1.0 | 0.00 | 0.00 | 0.00 | 46 | 1019.7 |
| 20260902181039 | 76 | 287 | 0.0 | 2.0 | 0.00 | 0.00 | 0.00 | 46 | 1019.7 |
| 20260902180537 | 76 | 287 | 0.0 | 1.0 | 0.00 | 0.00 | 0.00 | 45 | 1019.6 |
| 20260902180034 | 76 | 277 | 0.0 | 4.0 | 0.00 | 0.00 | 0.00 | 45 | 1019.6 |
| 20260902175543 | 77 | 301 | 1.0 | 4.0 | 0.00 | 0.00 | 0.00 | 45 | 1019.5 |
| 20260902175052 | 77 | 303 | 1.0 | 4.0 | 0.00 | 0.00 | 0.00 | 44 | 1019.5 |
| 20260902174548 | 77 | 306 | 1.0 | 5.0 | 0.00 | 0.00 | 0.00 | 43 | 1019.6 |
| 20260902174038 | 77 | 283 | 2.0 | 6.0 | 0.00 | 0.00 | 0.00 | 44 | 1019.5 |
| 20260902173554 | 78 | 305 | 1.0 | 6.0 | 0.00 | 0.00 | 0.00 | 43 | 1019.5 |
| 20260902173034 | 78 | 268 | 1.0 | 7.0 | 0.00 | 0.00 | 0.00 | 43 | 1019.5 |
| 20260902172553 | 79 | 276 | 1.0 | 5.0 | 0.00 | 0.00 | 0.00 | 41 | 1019.5 |
| 20260902172029 | 79 | 304 | 1.0 | 4.0 | 0.00 | 0.00 | 0.00 | 41 | 1019.4 |
| 20260902171530 | 80 | 278 | 1.0 | 5.0 | 0.00 | 0.00 | 0.00 | 41 | 1019.4 |
| 20260902171042 | 80 | 320 | 1.0 | 8.0 | 0.00 | 0.00 | 0.00 | 40 | 1019.4 |
| 20260902170539 | 80 | 269 | 2.0 | 8.0 | 0.00 | 0.00 | 0.00 | 40 | 1019.4 |
| 20260902170031 | 80 | 319 | 2.0 | 8.0 | 0.00 | 0.00 | 0.00 | 39 | 1019.3 |
| 20260902165552 | 81 | 323 | 4.0 | 11.0 | 0.00 | 0.00 | 0.00 | 39 | 1019.3 |
| 20260902165108 | 82 | 301 | 4.0 | 11.0 | 0.00 | 0.00 | 0.00 | 38 | 1019.3 |
| 20260902164529 | 82 | 32 | 0.0 | 4.0 | 0.00 | 0.00 | 0.00 | 40 | 1019.3 |
| 20260902164028 | 81 | 196 | 0.0 | 7.0 | 0.00 | 0.00 | 0.00 | 40 | 1019.3 |
| 20260902163606 | 82 | 296 | 2.0 | 9.0 | 0.00 | 0.00 | 0.00 | 39 | 1019.3 |
| 20260902163028 | 82 | 317 | 4.0 | 9.0 | 0.00 | 0.00 | 0.00 | 40 | 1019.3 |
| 20260902162545 | 82 | 306 | 2.0 | 9.0 | 0.00 | 0.00 | 0.00 | 39 | 1019.3 |
| 20260902162041 | 82 | 327 | 4.0 | 10.0 | 0.00 | 0.00 | 0.00 | 38 | 1019.3 |
| 20260902161532 | 82 | 290 | 4.0 | 10.0 | 0.00 | 0.00 | 0.00 | 39 | 1019.4 |
| 20260902161045 | 82 | 290 | 1.0 | 5.0 | 0.00 | 0.00 | 0.00 | 38 | 1019.4 |
| 20260902160533 | 82 | 315 | 2.0 | 10.0 | 0.00 | 0.00 | 0.00 | 37 | 1019.5 |
| 20260902160041 | 82 | 307 | 4.0 | 10.0 | 0.00 | 0.00 | 0.00 | 38 | 1019.5 |
| 20260902155558 | 82 | 319 | 1.0 | 8.0 | 0.00 | 0.00 | 0.00 | 38 | 1019.6 |
| 20260902155034 | 82 | 264 | 3.0 | 10.0 | 0.00 | 0.00 | 0.00 | 39 | 1019.6 |
| 20260902154555 | 83 | 278 | 5.0 | 10.0 | 0.00 | 0.00 | 0.00 | 38 | 1019.6 |
| 20260902154044 | 83 | 294 | 3.0 | 9.0 | 0.00 | 0.00 | 0.00 | 38 | 1019.6 |
| 20260902153536 | 83 | 264 | 3.0 | 11.0 | 0.00 | 0.00 | 0.00 | 38 | 1019.6 |
| 20260902153035 | 84 | 290 | 3.0 | 11.0 | 0.00 | 0.00 | 0.00 | 37 | 1019.5 |
| 20260902152528 | 84 | 268 | 3.0 | 8.0 | 0.00 | 0.00 | 0.00 | 38 | 1019.5 |
| 20260902152041 | 84 | 306 | 4.0 | 7.0 | 0.00 | 0.00 | 0.00 | 38 | 1019.5 |
| 20260902151532 | 83 | 319 | 1.0 | 4.0 | 0.00 | 0.00 | 0.00 | 38 | 1019.6 |
| 20260902151031 | 83 | 78 | 0.0 | 6.0 | 0.00 | 0.00 | 0.00 | 39 | 1019.6 |
| 20260902150542 | 83 | 229 | 1.0 | 6.0 | 0.00 | 0.00 | 0.00 | 37 | 1019.7 |
| 20260902150029 | 83 | 316 | 1.0 | 9.0 | 0.00 | 0.00 | 0.00 | 37 | 1019.7 |
| 20260902145545 | 82 | 338 | 4.0 | 9.0 | 0.00 | 0.00 | 0.00 | 39 | 1019.8 |
| 20260902145042 | 82 | 81 | 1.0 | 6.0 | 0.00 | 0.00 | 0.00 | 40 | 1019.8 |
| 20260902144537 | 83 | 327 | 2.0 | 6.0 | 0.00 | 0.00 | 0.00 | 40 | 1019.7 |
| 20260902144031 | 83 | 23 | 2.0 | 10.0 | 0.00 | 0.00 | 0.00 | 40 | 1019.7 |
| 20260902143552 | 83 | 293 | 2.0 | 10.0 | 0.00 | 0.00 | 0.00 | 39 | 1019.8 |
| 20260902143032 | 83 | 350 | 3.0 | 11.0 | 0.00 | 0.00 | 0.00 | 41 | 1019.8 |
| 20260902142539 | 82 | 355 | 4.0 | 14.0 | 0.00 | 0.00 | 0.00 | 41 | 1019.8 |
| 20260902142028 | 82 | 311 | 4.0 | 14.0 | 0.00 | 0.00 | 0.00 | 42 | 1019.8 |
| 20260902141546 | 81 | 193 | 1.0 | 9.0 | 0.00 | 0.00 | 0.00 | 42 | 1019.9 |
| 20260902141042 | 81 | 347 | 2.0 | 5.0 | 0.00 | 0.00 | 0.00 | 42 | 1019.9 |
| 20260902140554 | 80 | 53 | 2.0 | 5.0 | 0.00 | 0.00 | 0.00 | 43 | 1020.0 |
| 20260902140045 | 79 | 55 | 2.0 | 9.0 | 0.00 | 0.00 | 0.00 | 43 | 1019.9 |
| 20260902135534 | 79 | 33 | 4.0 | 9.0 | 0.00 | 0.00 | 0.00 | 44 | 1020.1 |
| 20260902135031 | 79 | 5 | 1.0 | 6.0 | 0.00 | 0.00 | 0.00 | 43 | 1020.1 |
| 20260902134543 | 79 | 76 | 2.0 | 6.0 | 0.00 | 0.00 | 0.00 | 43 | 1020.1 |
| 20260902134034 | 79 | 33 | 3.0 | 6.0 | 0.00 | 0.00 | 0.00 | 43 | 1020.1 |
| 20260902133530 | 80 | 52 | 2.0 | 7.0 | 0.00 | 0.00 | 0.00 | 43 | 1020.2 |
| 20260902133046 | 80 | 60 | 4.0 | 7.0 | 0.00 | 0.00 | 0.00 | 42 | 1020.2 |
| 20260902132539 | 80 | 351 | 1.0 | 6.0 | 0.00 | 0.00 | 0.00 | 42 | 1020.2 |
| 20260902132045 | 80 | 341 | 1.0 | 3.0 | 0.00 | 0.00 | 0.00 | 45 | 1020.3 |
| 20260902131602 | 79 | 196 | 1.0 | 5.0 | 0.00 | 0.00 | 0.00 | 45 | 1020.3 |
| 20260902131035 | 79 | 17 | 2.0 | 9.0 | 0.00 | 0.00 | 0.00 | 43 | 1020.4 |
| 20260902130553 | 80 | 13 | 3.0 | 9.0 | 0.00 | 0.00 | 0.00 | 43 | 1020.4 |
| 20260902130043 | 80 | 322 | 2.0 | 5.0 | 0.00 | 0.00 | 0.00 | 43 | 1020.4 |
| 20260902125535 | 80 | 297 | 3.0 | 8.0 | 0.00 | 0.00 | 0.00 | 43 | 1020.5 |
| 20260902125027 | 79 | 309 | 0.0 | 13.0 | 0.00 | 0.00 | 0.00 | 44 | 1020.5 |
| 20260902124600 | 79 | 194 | 1.0 | 13.0 | 0.00 | 0.00 | 0.00 | 44 | 1020.5 |
| 20260902124031 | 80 | 49 | 1.0 | 5.0 | 0.00 | 0.00 | 0.00 | 42 | 1020.6 |
| 20260902123543 | 79 | 5 | 2.0 | 4.0 | 0.00 | 0.00 | 0.00 | 44 | 1020.6 |
| 20260902123042 | 79 | 153 | 1.0 | 4.0 | 0.00 | 0.00 | 0.00 | 46 | 1020.6 |
| 20260902122533 | 79 | 349 | 1.0 | 8.0 | 0.00 | 0.00 | 0.00 | 44 | 1020.6 |
| 20260902122042 | 78 | 296 | 1.0 | 8.0 | 0.00 | 0.00 | 0.00 | 47 | 1020.6 |
| 20260902121533 | 77 | 323 | 1.0 | 4.0 | 0.00 | 0.00 | 0.00 | 45 | 1020.6 |
| 20260902121043 | 77 | 46 | 1.0 | 8.0 | 0.00 | 0.00 | 0.00 | 46 | 1020.6 |
| 20260902120539 | 77 | 46 | 2.0 | 8.0 | 0.00 | 0.00 | 0.00 | 46 | 1020.6 |
| 20260902120043 | 77 | 49 | 1.0 | 4.0 | 0.00 | 0.00 | 0.00 | 46 | 1020.7 |
| 20260902115535 | 78 | 36 | 1.0 | 4.0 | 0.00 | 0.00 | 0.00 | 46 | 1020.7 |
| 20260902115033 | 77 | 10 | 1.0 | 3.0 | 0.00 | 0.00 | 0.00 | 46 | 1020.8 |
| 20260902114539 | 77 | 26 | 0.0 | 6.0 | 0.00 | 0.00 | 0.00 | 48 | 1020.9 |
| 20260902114034 | 78 | 286 | 3.0 | 6.0 | 0.00 | 0.00 | 0.00 | 45 | 1020.9 |
| 20260902113545 | 78 | 13 | 2.0 | 6.0 | 0.00 | 0.00 | 0.00 | 46 | 1020.9 |